Home   Weather   Wegberg   Past weeks

Flag for Germany Past Weather in Wegberg, North Rhine-Westphalia, Germany — Yesterday and Last 2 Weeks

Now
54 °F

Passing clouds.


Feels Like: 51 °F
Forecast: 49 / 52 °F
Wind: 9 mph from West

Location: Monchengladbach Airport

Current Time: Feb 21, 2017 at 5:58:48 pm

Latest Report: Feb 21, 2017 at 5:20 pm


Visibility: N/A

Pressure: 29.98 "Hg

Humidity: 67%

Dew Point: 43 °F

Location of WegbergLocation

Past Weather in Wegberg — Graph

°F

Wegberg Temperature Yesterday

Maximum temperature yesterday: 50 °F (at 3:20 pm)
Minimum temperature yesterday: 46 °F (at 9:20 am)
Average temperature yesterday: 49 °F

High & Low Weather Summary for the Past Weeks

 TemperatureHumidityPressure
High57 °F (Feb 15, 2:50 pm)100% (Feb 11, 8:20 am)30.54 "Hg (Feb 11, 8:20 am)
Low30 °F (Feb 14, 7:20 am)47% (Feb 14, 3:20 pm)29.95 "Hg (Feb 21, 7:50 am)
Average43 °F78%30.23 "Hg
* Reported Feb 6 4:20 pm — Feb 21 4:20 pm, Wegberg, Weather by CustomWeather, © 2017

Note: Actual official high and low records may vary slightly from our data, if they occured in-between our weather recording intervals... More about our weather records

Advertising

Wegberg Weather History for the Previous 24 Hours

Scroll right to see more
 ConditionsComfort  
Time TempWeatherWind HumidityBarometerVisibility
4:20 pm
Tue, Feb 21
54 °FClear.8 mph63%29.98 "Hg10 mi
3:50 pm54 °FPassing clouds.12 mph63%29.98 "HgN/A
3:20 pm54 °FPassing clouds.13 mph63%29.98 "HgN/A
2:50 pm55 °FPassing clouds.10 mph63%29.98 "HgN/A
2:20 pm55 °FPassing clouds.12 mph59%29.98 "HgN/A
1:50 pm54 °FPassing clouds.13 mph63%29.98 "HgN/A
1:20 pm55 °FPassing clouds.15 mph59%29.98 "HgN/A
12:50 pm52 °FPassing clouds.15 mph72%30.01 "HgN/A
12:20 pm54 °FPassing clouds.13 mph72%30.01 "HgN/A
11:50 am54 °FPartly cloudy.12 mph77%29.98 "HgN/A
11:20 am52 °FPassing clouds.12 mph82%29.98 "HgN/A
10:50 am52 °FPartly cloudy.13 mph88%29.98 "HgN/A
10:20 am52 °FPassing clouds.9 mph88%29.98 "Hg4 mi
9:50 am50 °FPassing clouds.8 mph94%29.98 "Hg4 mi
9:20 am50 °FPassing clouds.7 mph94%29.98 "Hg4 mi
8:50 am50 °FPartly sunny.8 mph94%29.98 "Hg4 mi
8:20 am50 °FPartly sunny.9 mph94%29.98 "Hg4 mi
7:50 am50 °FScattered clouds.7 mph88%29.95 "Hg5 mi
8:20 pm
Mon, Feb 20
50 °FFog.12 mph100%29.98 "Hg2 mi
7:50 pm50 °FFog.10 mph100%29.98 "Hg2 mi
7:20 pm50 °FFog.9 mph100%29.98 "Hg2 mi
6:50 pm50 °FFog.9 mph100%29.98 "Hg2 mi
6:20 pm50 °FLight rain. Fog.10 mph100%29.98 "Hg2 mi
5:50 pm50 °FLight rain. Fog.9 mph94%29.98 "Hg2 mi
5:20 pm50 °FLight rain. Fog.10 mph94%29.98 "Hg2 mi
Weather by CustomWeather, © 2017

See weather overviewHow to use our weather pages